sat.trackr.live / text

‹ back to catalog

STARLINK-11275 [DTC]

NORAD 61579 · 2024-187F

PAYLOAD ACTIVE UNKNOWN

§ Identity

Operator
Country
US
Launch date
2024-10-18
Launch site
AFETR
Launch vehicle
Mass (kg)
RCS (m²)

Purposes: comms

External: N2YO · Heavens-Above · Gunter

§ Orbital elements

Epoch: 2026-05-24T17:01:45.667776Z

Period
91.74 min
Inclination
53.1581°
Eccentricity
0.0000889
Mean motion
15.69705426 rev/d
Perigee alt
359.1 km
Apogee alt
360.3 km
Semi-major
6,737.9 km
B*
2.1058e-6
RAAN
281.2389°
Arg perigee
82.6458°
Mean anomaly
277.4661°
Rev number
9,264

§ Raw data

STARLINK-11275 [DTC]1 61579U 24187F   26144.70955634 -.00000333  00000+0  21058-5 0  99962 61579  53.1581 281.2389 0000889  82.6458 277.4661 15.69705426 92643

JSON: /api/v1/satellites/61579 · /tle

For live sub-satellite position, see the globe view (requires WebGL).

§ Visibility from observer

Set your observer location to see the next 7 days of passes ≥ 10°. The values pass through the URL so the page stays shareable.

No JS? Fill the form by hand. The geolocation button needs JavaScript.